Regional Weather Roundup
Issued by NWS Sterling, VA

Home | Current Version | Previous Version | Graphics & Text | Print | Product List | Glossary On
Versions: 1 2 3 4 5 6 7 8 9 10 11 12 13 14 15 16 17 18 19 20 21 22 23 24 25 26 27 28 29 30 31 32 33 34 35 36 37 38 39 40 41 42 43 44 45 46 47 48 49 50
000
ASUS41 KLWX 011410
RWRLWX

REGIONAL WEATHER ROUNDUP
NATIONAL WEATHER SERVICE BALTIMORE MD/WASHINGTON DC
1000 AM EDT TUE SEP 01 2015

Note: "FAIR" indicates few or no clouds below 12,000 feet
with no significant weather and/or obstructions to visibility.
 TC=TEMPERATURE CELSIUS

 * =Non NWS site. Station does not report precipitation (e.g. rain,
    snow, etc.), thunder, or fog.

DCZ001-MDZ009-015-VAZ040>042-051-053>054-011500-
WASHINGTON METRO

CITY           SKY/WX    TMP DP  RH WIND       PRES   REMARKS
WASHINGTON NAT MOSUNNY   83  69  62 VRB5      30.08R
DULLES         MOSUNNY   81  67  62 NW7       30.09S
ANDREWS AFB    SUNNY     83  68  60 N6        30.07R
FT BELVOIR     SUNNY     83  69  61 VRB2      30.07S
QUANTICO       PTSUNNY   77  70  79 S6        30.09R
COLLEGE PARK*  SUNNY     84  68  58 NE3       30.07R
LEESBURG*      SUNNY     82  70  65 N7G16     30.11R
MANASSAS*      SUNNY     81  72  74 N7        30.09R
GAITHERSBURG*  SUNNY     82  70  65 CALM      30.13R

$$

MDZ006>007-011-014-011500-
BALTIMORE METRO

CITY           SKY/WX    TMP DP  RH WIND       PRES   REMARKS
BWI AIRPORT    MOSUNNY   84  68  58 VRB3      30.07R
MD SCIENCE CTR   N/A     84  67  56 MISG      30.07R
MARTIN STATE   SUNNY     81  73  78 NW3       30.08R
ANNAPOLIS      SUNNY     80  70  71 NW6       30.07R
FORT MEADE*    SUNNY     82  68  61 CALM      30.10R

$$

MDZ012-015-019>023-011500-
MARYLAND EASTERN SHORE

CITY           SKY/WX    TMP DP  RH WIND       PRES   REMARKS
OCEAN CITY     SUNNY     81  70  69 W3        30.06R
SALISBURY      SUNNY     80  71  74 W5        30.06R
BAY BRIDGE AP*   N/A     77  68  73 NW5       30.07R
CAMBRIDGE*     SUNNY     81  72  74 CALM      30.06R
EASTON*        SUNNY     82  73  74 VRB5      30.10R

$$

MDZ017>025-011500-
SOUTHERN MARYLAND

CITY           SKY/WX    TMP DP  RH WIND       PRES   REMARKS
PATUXENT RIVER MOSUNNY   78  70  76 CALM      30.07S
ST INIGOES     CLOUDY    75  72  90 MISG      30.07R
LEONARDTOWN*   NOT AVBL

$$

MDZ003>005-011500-
NORTH CENTRAL MARYLAND

CITY           SKY/WX    TMP DP  RH WIND       PRES   REMARKS
FREDERICK*     SUNNY     81  70  69 CALM      30.12R
HAGERSTOWN APT SUNNY     80  66  62 CALM      30.12R
WESTMINSTER*   SUNNY     81  70  69 NE5       30.11S

$$

MDZ501>502-011500-
WESTERN MARYLAND

CITY           SKY/WX    TMP DP  RH WIND       PRES   REMARKS
OAKLAND*       SUNNY     70  63  78 W3        30.25R
CUMBERLAND*    SUNNY     75  68  78 CALM      30.18S

$$

VAZ025>031-011500-
SHENANDOAH VALLEY

CITY           SKY/WX    TMP DP  RH WIND       PRES   REMARKS
WINCHESTER*    SUNNY     82  64  54 N6        30.12S
FRONT ROYAL*   FAIR      79  64  61 S3        30.12S
LURAY*         FAIR      77  63  61 SW3       30.14S
NEW MARKET*    FAIR      76  65  69 CALM      30.14R
STAUNTON*      SUNNY     77  66  68 CALM      30.18S
WAYNESBORO*    FAIR      78  65  63 CALM      30.17S

$$

WVZ021-048>050-054>055-011500-
EASTERN WEST VIRGINIA PANHANDLE

CITY           SKY/WX    TMP DP  RH WIND       PRES   REMARKS
MARTINSBURG    SUNNY    N/A N/A N/A VRB7        N/A
PETERSBURG*    SUNNY     71  66  83 CALM      30.17S

$$

VAZ036>039-050-011500-
CENTRAL FOOTHILLS

CITY           SKY/WX    TMP DP  RH WIND       PRES   REMARKS
CHARLOTTESVILL SUNNY     82  66  58 CALM      30.11R
CULPEPER*      SUNNY     78  68  70 N7        30.10S
ORANGE*        SUNNY     81  68  65 NW7       30.11R
GORDONSVILLE*  FAIR      82  70  67 CALM      30.10R
WARRENTON*     FAIR      83  71  66 NW7       30.09S

$$

VAZ055>057-011500-
NORTH AND CENTRAL PIEDMONT

CITY           SKY/WX    TMP DP  RH WIND       PRES   REMARKS
FREDERICKSBRG* SUNNY     80  70  70 NW3       30.08R
STAFFORD*      SUNNY     80  67  65 N5        30.12S

$$

NCZ024-NYZ072-PAZ021-071-VAZ022-071-011500-
OTHER REGIONAL OBSERVATIONS

CITY           SKY/WX    TMP DP  RH WIND       PRES   REMARKS
NEW YORK CITY  SUNNY     81  64  56 NE6       30.08R
PHILADELPHIA   SUNNY     85  66  53 NE3       30.06R
PITTSBURGH     MOSUNNY   77  67  71 S5        30.15S
ROANOKE        SUNNY     78  64  61 N3        30.18S
RICHMOND       PTSUNNY   79  69  71 CALM      30.09R
RALEIGH        MOSUNNY   78  70  76 CALM      30.12R

$$

ANZ530>537-011500-
MARINE OBSERVATIONS

STATION/POSITION TIME  TEMP    WIND        PRES
                       AIR SEA DIR/SP/G
                 (UTC) (F)     (DEG/KT/KT) (MB)
THOMAS PT LIGHT  1300          290/  4       N/A
BALT KEY BRIDGE  1300   78     300/  3/  4 1017.7R
COVE POINT       1300   74     330/  2/  3 1018.6R
LEWISETTA        1300   71 79  270/  3/  4 1017.9S
SOLOMONS ISLAND  1300      80                N/A
PINEY POINT      1305          290/  6/  7   N/A

$$



USA.gov is the U.S. government's official web portal to all federal, state and local government web resources and services.